Location: Madden
(51.3728°N, 114.3297°W)
Time: 01:49:55
(UTC+00:00)

RS-44 - Pass Details

Date: 06 December 2023
Orbit: 1175 x 1510 km, 82.5° (Epoch: 26 February)

Event Time Altitude Azimuth Distance (km) Brightness Sun altitude
Rises 03:56:31 0° 351° (N) 4,193 ? -40.3°
Reaches altitude 10° 03:59:43 10° 2° (N) 3,183 ? -40.8°
Enters shadow 04:00:12 12° 4° (N) 3,040 ? -40.8°
